Location: Spring Creek
(38.2870°N, 100.2160°W)
Time: 03:46:30
(UTC+00:00)

S3M - Pass Details

Date: 08 May 2021
Orbit: 948 x 1005 km, 83.0° (Epoch: 22 June)

Event Time Altitude Azimuth Distance (km) Brightness Sun altitude
Exits shadow 02:34:22 - 164° (SSE) 3,464 6.4 -10.6°
Reaches altitude 10° 02:36:18 10° 160° (SSE) 2,771 5.9 -10.9°
Maximum altitude 02:42:17 44° 90° (E) 1,352 4.4 -11.9°
Drops below altitude 10° 02:48:16 10° 20° (NNE) 2,771 6.6 -12.9°
Sets 02:50:53 0° 14° (NNE) 3,717 7.3 -13.3°
